Погода в Сардобе

Узбекистан     40°32′36″N   68°24′40″E
темп.,
°C
ветер,
м/с
пор.,
м/с
влажн.,
%
обл.,
%
осадки,
мм/ч
давл.,
гПа
погр.,
м
27 февраля, сб
сб2723:00−3в1259100 0.0 103045
02:00−3вюв1158100 0.0 102852
05:00−3в2357100 0.0 1028128
08:00−2вюв3448100 0.1 1028268
11:00+2ююв3439100 0.1 1029440
14:00+5ююв233482 0.0 1028835
17:00+6ююв453573 0.0 1028832
20:00+3ююв464423 0.0 1030114
28 февраля, вс
вс2823:00+2юв4114612 0.0 1030290
02:00+2юв817370 0.0 1028502
05:00+2юв918410 0.0 1026482
08:00+2юв815420 0.0 1025493
11:00+8вюв914300 0.0 1022840
14:00+11вюв912260 0.0 1020921
17:00+11вюв710260 0.0 1019860
20:00+7вюв510370 0.0 1021259
1 марта, пн
пн123:00+6вюв6133850 0.0 1021353
02:00+6вюв61340100 0.0 1021320
05:00+5вюв71440100 0.0 1020325
08:00+6юв81538100 0.0 1021302
11:00+12юв8132661 0.0 1020470
14:00+16юв812210 0.0 1018593
17:00+15юв812210 0.0 1018478
20:00+11юв614280 0.0 1020305
2 марта, вт
вт223:00+10юв714290 0.0 1021246
02:00+10юв71229100 0.0 1021193
05:00+9юв61229100 0.0 1021202
08:00+9юв51131100 0.0 1022213
11:00+14юв5725100 0.0 1021433
14:00+16юв4622100 0.0 1020814
17:00+16ю1224100 0.0 1020464
20:00+13вюв1234100 0.0 102230
3 марта, ср
ср323:00+12всв2341100 0.0 102241
02:00+11з1246100 0.0 102136
05:00+9ссв2355100 0.0 102174
08:00+9ссв2374100 0.3 1021141
11:00+10в1171100 0.3 1021292
14:00+12ссз3362100 0.1 1019914
17:00+9ссв4575100 1.1 1019426
20:00+9в5879100 0.1 1019408